COSMOS 2330

导读 | 豆包AI

COSMOS 2330是苏联(CIS,即独立国家联合体)于1996年2月19日发射的一颗人造卫星,属于著名的“宇宙”(COSMOS)卫星系列。该系列是世界上规模最大的卫星家族,多数为军用卫星,涵盖侦察、通信、导航等多种用途,也包含部分科学试验卫星。作为冷战后独联体时期发射的成员,COSMOS 2330延续了系列任务属性,其具体任务细节未完全公开,是苏联航天遗产在独立国家联合体时期的延续产物。

Basic Information
目录编号:
23792
目录名称:
COSMOS 2330
国际标识:
1996-009F
轨道中心:
EARTH
卫星名称:
COSMOS 2330
卫星全名:
--
卫星状态:
在轨 (已飞行11028 天)
发射日期:
1996-02-19 UTC
国别 :
俄罗斯(独联体) (CIS)
星等 :
--
Orbit Information
数据来源 国际轨道数据
星历时间: 2026-04-30T13:07:16+0800
12小时前
查看轨道信息
半长轴: 7797.057km
偏心率: 0.0011188
轨道倾角: 82.585°
近地点辐角 181.902°
升交点赤经 14.437°
平近点角 178.203°
近地点: 1410.196km
远地点: 1427.644km
周期: 114.197分钟
每日圈数: 12.609758
Detailed Information
使用方式:
暂无
2D Orbit Map
3D Orbit Map
Orbit Altitude Analysis Chart
Orbit Inclination Analysis Chart
Orbit Comprehensive Analysis Chart
View Comprehensive Chart